Starlink 3075

operational
NORAD ID: 49409 Int'l Des: 2021-104 Owner: SPXS Country: US Constellation: starlink
LEOCIRCULAR

Starlink 3075について

説明を読み込み中...

リアルタイム位置

3D地球を読み込み中...

次回通過

高度履歴

Altitude vs Time

uPlot chart will show altitude changes over time

軌道要素

1 49409U 21104B 25257.39557904 -.00001024 00000-0 -46254-4 0 9991
2 49409 53.2166 300.5396 0001176 88.1511 271.9616 15.08836474212021
Epoch: Sep 14, 2025 • Age: 25 hours

現在のステータス

高度 550.0 km
速度 7.59 km/s
衛星直下点 -31.48°S, 112.81°E
打ち上げ日 Nov 13, 2021
運用期間 3.8 years
タイプ internet

技術仕様

分類 Payload
質量 290.00 kg
乾燥質量 270.00 kg
総質量 290.00 kg
長さ 0.20 m
直径 2.80 m
スパン 9.00 m
形状 Box + pan
製造者 SPXS
バスタイプ Starlink
フェーズステータス In Orbit
所有者/国 SPXS/US

大規模コンステレーション

Loading constellations...